This is the latest recevied weather packets stored in our database for station/object PP5CFL-2. If no packets are shown the sender has not sent any weather packets the latest 10 day(s).
| Time | Temp. | Humidity | Pressure | Rain* | Wind** | Luminosity | Snow |
|---|---|---|---|---|---|---|---|
| 1777643721 | 30.56° C | 73% | 1016.2 hPa | - | - | - | - |
| 1777643421 | 30.56° C | 74% | 1016.2 hPa | - | - | - | - |
| 1777643121 | 30.56° C | 74% | 1016.4 hPa | - | - | - | - |
| 1777642821 | 30.56° C | 75% | 1016.3 hPa | - | - | - | - |
| 1777642521 | 30.56° C | 77% | 1016.3 hPa | - | - | - | - |
| 1777642221 | 30.56° C | 79% | 1016.4 hPa | - | - | - | - |
| 1777641921 | 30.56° C | 79% | 1016.5 hPa | - | - | - | - |
| 1777641621 | 30.56° C | 79% | 1016.5 hPa | - | - | - | - |
| 1777641321 | 30° C | 79% | 1016.5 hPa | - | - | - | - |
| 1777641021 | 29.44° C | 81% | 1016.7 hPa | - | - | - | - |
| 1777640721 | 29.44° C | 83% | 1016.7 hPa | - | - | - | - |
| 1777640421 | 28.89° C | 84% | 1016.8 hPa | - | - | - | - |
| 1777640121 | 28.89° C | 84% | 1016.9 hPa | - | - | - | - |
| 1777639821 | 28.33° C | 86% | 1016.9 hPa | - | - | - | - |
| 1777639521 | 27.78° C | 88% | 1017.1 hPa | - | - | - | - |
| 1777639221 | 27.78° C | 87% | 1017.3 hPa | - | - | - | - |
| 1777638921 | 27.22° C | 88% | 1017.2 hPa | - | - | - | - |
| 1777638621 | 27.22° C | 89% | 1017.3 hPa | - | - | - | - |
| 1777638321 | 27.22° C | 92% | 1017.2 hPa | - | - | - | - |
| 1777638021 | 26.11° C | 96% | 1017.4 hPa | - | - | - | - |
| 1777637721 | 25° C | 10% | - | - | - | - | - |
| 1777637421 | 25.56° C | 97% | 1017.4 hPa | - | - | - | - |
| 1777637121 | 25.56° C | 98% | 1017.5 hPa | - | - | - | - |
| 1777636821 | 25° C | 98% | 1017.6 hPa | - | - | - | - |
| 1777636521 | 25° C | 10% | - | - | - | - | - |
* Rain since midnight (hover to see other rain measurements)
** Current wind speed in m/s (hover to see current wind gust speed)